Weather History for North Adams, MA

Change the Weather History Date:

Saturday, September 29, 2012

  Actual Average Record
Temperature  
Mean Temperature 55 °F -  
Max Temperature 59 °F 63 °F 75 °F (2010)
Min Temperature 51 °F 41 °F 36 °F (1998)
Degree Days  
Heating Degree Days 10    
Growing Degree Days 5 (Base 50)    
Moisture  
Dew Point 51 °F    
Average Humidity 89    
Maximum Humidity 100    
Minimum Humidity 69    
Precipitation  
Precipitation 0.03 in - - ()
Sea Level Pressure  
Sea Level Pressure 29.93 in    
Wind  
Wind Speed 1 mph (NW)    
Max Wind Speed 7 mph    
Max Gust Speed -    
Visibility 8 miles    
Events Rain    
Averages and records for this station are not official NWS values.
T = Trace of Precipitation, MM = Missing Value Source: NWS Daily Summary

Daily Weather History Graph

Daily Weather History Graph

Search for Another Location

Airport:

Trip Planner

Search our weather history database for the weather conditions in past years. The results will help you decide how hot, cold, wet, or windy it might be!

Date:

Astronomy

Sep. 29, 2012 Rise Set
Actual Time 6:48 AM EDT 6:36 PM EDT
Civil Twilight 6:20 AM EDT 7:04 PM EDT
Nautical Twilight 5:47 AM EDT 7:37 PM EDT
Astronomical Twilight 5:13 AM EDT 8:10 PM EDT
Moon 6:06 PM EDT (9/29) 6:16 AM EDT (9/29)
Length of Visible Light 12h 44m
Length of Day
11h 48m
Full, 100% of the Moon is Illuminated
Sep 29
Full
Sep 29
Full
Oct 8
Last Quarter
Oct 15
New
Oct 21
First Quarter

Hourly Weather History & Observations

Time (EDT) Temp. Dew Point Humidity Pressure Visibility Wind Dir Wind Speed Gust Speed Precip Events Conditions
12:52 AM 53.1 °F 48.9 °F 86% 29.99 in 10.0 mi ESE 6.9 mph - N/A   Overcast
2:52 AM 52.0 °F 48.9 °F 89% 29.96 in 10.0 mi Calm Calm - N/A   Overcast
3:52 AM 52.0 °F 50.0 °F 93% 29.95 in 10.0 mi Calm Calm - N/A   Overcast
4:52 AM 52.0 °F 50.0 °F 93% 29.96 in 10.0 mi Calm Calm - N/A   Overcast
5:01 AM 51.8 °F 51.8 °F 100% 29.95 in 10.0 mi Calm Calm - N/A   Overcast
5:52 AM 52.0 °F 50.0 °F 93% 29.97 in 10.0 mi Calm Calm - N/A   Overcast
6:52 AM 52.0 °F 50.0 °F 93% 29.96 in 10.0 mi Calm Calm - N/A   Overcast
7:52 AM 53.1 °F 51.1 °F 93% 29.96 in 10.0 mi Calm Calm - N/A   Overcast
8:19 AM 53.6 °F 51.8 °F 94% 29.95 in 10.0 mi Calm Calm - N/A   Overcast
8:52 AM 54.0 °F 51.1 °F 90% 29.96 in 10.0 mi NNW 3.5 mph - N/A   Overcast
9:52 AM 54.0 °F 50.0 °F 86% 29.96 in 10.0 mi Calm Calm - N/A   Overcast
10:52 AM 55.0 °F 50.0 °F 83% 29.95 in 10.0 mi Calm Calm - N/A   Overcast
11:52 AM 55.9 °F 50.0 °F 80% 29.95 in 10.0 mi NW 3.5 mph - N/A   Overcast
12:52 PM 57.9 °F 48.9 °F 72% 29.93 in 10.0 mi Calm Calm - N/A   Overcast
1:41 PM 57.2 °F 48.2 °F 72% 29.91 in 10.0 mi Calm Calm - N/A   Overcast
1:52 PM 59.0 °F 48.9 °F 69% 29.91 in 10.0 mi Calm Calm - N/A   Overcast
2:52 PM 57.9 °F 50.0 °F 75% 29.91 in 10.0 mi NNW 4.6 mph - N/A   Overcast
3:02 PM 57.2 °F 50.0 °F 77% 29.89 in 10.0 mi Calm Calm - N/A   Overcast
3:52 PM 57.9 °F 50.0 °F 75% 29.89 in 10.0 mi Calm Calm - N/A   Overcast
4:25 PM 57.2 °F 51.8 °F 82% 29.89 in 10.0 mi Calm Calm - N/A   Overcast
4:34 PM 55.4 °F 51.8 °F 88% 29.89 in 10.0 mi West 3.5 mph - N/A   Overcast
4:52 PM 55.9 °F 52.0 °F 87% 29.90 in 10.0 mi Calm Calm - N/A   Overcast
6:52 PM 55.0 °F 52.0 °F 89% 29.91 in 10.0 mi Calm Calm - N/A   Overcast
7:52 PM 54.0 °F 52.0 °F 93% 29.92 in 7.0 mi Calm Calm - N/A   Overcast
8:01 PM 53.6 °F 53.6 °F 100% 29.92 in 4.0 mi Calm Calm - N/A   Overcast
8:08 PM 53.6 °F 51.8 °F 94% 29.91 in 3.0 mi Calm Calm - N/A   Overcast
8:15 PM 53.6 °F 51.8 °F 94% 29.92 in 2.5 mi Calm Calm - 0.00 in Rain Light Rain
8:22 PM 53.6 °F 51.8 °F 94% 29.92 in 2.5 mi Calm Calm - 0.01 in Rain Light Rain
8:36 PM 53.6 °F 53.6 °F 100% 29.91 in 3.0 mi Calm Calm - 0.02 in Rain Light Rain
9:13 PM 53.6 °F 53.6 °F 100% 29.91 in 3.0 mi Calm Calm - 0.02 in Rain Light Rain
9:26 PM 53.6 °F 53.6 °F 100% 29.91 in 4.0 mi Calm Calm - 0.03 in Rain Light Rain
9:34 PM 53.6 °F 51.8 °F 94% 29.91 in 6.0 mi Calm Calm - 0.03 in   Overcast
9:52 PM 54.0 °F 52.0 °F 93% 29.92 in 6.0 mi Calm Calm - 0.03 in   Overcast
10:52 PM 54.0 °F 51.1 °F 90% 29.91 in 10.0 mi Calm Calm - N/A   Overcast
11:40 PM 53.6 °F 51.8 °F 94% 29.90 in 10.0 mi Calm Calm - N/A   Overcast
11:52 PM 53.1 °F 52.0 °F 96% 29.91 in 10.0 mi Calm Calm - N/A   Overcast